Weather History for KAXN - May, 2013

Change the Weather History Date:

Tuesday, May 7, 2013

  Actual Average Record
Temperature  
Mean Temperature 62 °F -  
Max Temperature 75 °F 64 °F 89 °F (1990)
Min Temperature 48 °F 42 °F 29 °F (1976)
Degree Days  
Heating Degree Days 4    
Growing Degree Days 12 (Base 50)    
Moisture  
Dew Point 42 °F    
Average Humidity 52    
Maximum Humidity 86    
Minimum Humidity 25    
Precipitation  
Precipitation 0.00 in - - ()
Sea Level Pressure  
Sea Level Pressure 30.02 in    
Wind  
Wind Speed 3 mph (SSE)    
Max Wind Speed 12 mph    
Max Gust Speed 20 mph    
Visibility 10 miles    
Events      
Averages and records for this station are not official NWS values.
T = Trace of Precipitation, MM = Missing Value Source: NWS Daily Summary

Daily Weather History Graph

Daily Weather History Graph

Search for Another Location

Airport or City:

Trip Planner

Search our weather history database for the weather conditions in past years. The results will help you decide how hot, cold, wet, or windy it might be!

Date:

Astronomy

May. 07, 2013 Rise Set
Actual Time 5:59 AM CDT 8:37 PM CDT
Civil Twilight 5:25 AM CDT 9:11 PM CDT
Nautical Twilight 4:43 AM CDT 9:54 PM CDT
Astronomical Twilight 3:54 AM CDT 10:43 PM CDT
Moon 4:41 AM CDT (5/7) 6:32 PM CDT (5/7)
Length of Visible Light 15h 45m
Length of Day
14h 37m
Waning Crescent, 5% of the Moon is Illuminated
May 7
Waning Crescent
May 9
New
May 17
First Quarter
May 24
Full
May 31
Last Quarter

Hourly Weather History & Observations

Time (CDT) Temp. Dew Point Humidity Pressure Visibility Wind Dir Wind Speed Gust Speed Precip Events Conditions
12:53 AM 52.0 °F 46.0 °F 80% 30.07 in 10.0 mi Calm Calm - N/A   Clear
1:53 AM 50.0 °F 44.1 °F 80% 30.07 in 10.0 mi Calm Calm - N/A   Clear
2:53 AM 48.9 °F 44.1 °F 83% 30.07 in 10.0 mi Calm Calm - N/A   Clear
3:53 AM 48.0 °F 44.1 °F 86% 30.06 in 10.0 mi ESE 3.5 mph - N/A   Clear
5:53 AM 48.0 °F 44.1 °F 86% 30.07 in 10.0 mi Calm Calm - N/A   Clear
6:53 AM 48.9 °F 45.0 °F 86% 30.08 in 10.0 mi SSE 4.6 mph - N/A   Clear
7:53 AM 55.0 °F 46.9 °F 74% 30.08 in 10.0 mi South 3.5 mph - N/A   Clear
8:53 AM 59.0 °F 46.9 °F 64% 30.08 in 10.0 mi Calm Calm - N/A   Clear
9:53 AM 64.0 °F 46.0 °F 52% 30.07 in 10.0 mi South 5.8 mph - N/A   Clear
10:53 AM 66.9 °F 48.0 °F 51% 30.06 in 10.0 mi SSW 11.5 mph - N/A   Clear
11:53 AM 69.1 °F 46.0 °F 44% 30.05 in 10.0 mi South 11.5 mph - N/A   Clear
12:53 PM 71.1 °F 45.0 °F 39% 30.03 in 10.0 mi SSE 10.4 mph 19.6 mph N/A   Clear
1:53 PM 72.0 °F 41.0 °F 33% 30.02 in 10.0 mi South 10.4 mph - N/A   Clear
2:53 PM 73.9 °F 39.0 °F 28% 30.01 in 10.0 mi South 10.4 mph 16.1 mph N/A   Clear
3:53 PM 73.9 °F 39.0 °F 28% 29.99 in 10.0 mi South 11.5 mph - N/A   Clear
4:53 PM 75.0 °F 37.9 °F 26% 29.98 in 10.0 mi South 10.4 mph 18.4 mph N/A   Partly Cloudy
5:53 PM 73.9 °F 36.0 °F 25% 29.97 in 10.0 mi Calm Calm - N/A   Clear
6:53 PM 73.0 °F 36.0 °F 26% 29.96 in 10.0 mi South 6.9 mph - N/A   Clear
7:53 PM 71.1 °F 37.9 °F 30% 29.95 in 10.0 mi Calm Calm - N/A   Clear
8:53 PM 66.9 °F 37.9 °F 34% 29.96 in 10.0 mi Calm Calm - N/A   Mostly Cloudy
9:53 PM 63.0 °F 39.9 °F 43% 29.96 in 10.0 mi SE 3.5 mph - N/A   Mostly Cloudy
10:53 PM 60.1 °F 41.0 °F 49% 29.97 in 10.0 mi Calm Calm - N/A   Clear
11:53 PM 57.9 °F 41.0 °F 53% 29.96 in 10.0 mi ESE 3.5 mph - N/A   Partly Cloudy